Skip Page Navigation
NASA JPL Caltech
NASA Logo - Jet Propulsion Laboratory + View the NASA Portal
+ Center for Near-Earth Object Studies
JPL Home Earth Solar System Stars & Galaxies Technology
JPL Solar System Dynamics
BODIES ORBITS EPHEMERIDES TOOLS PHYSICAL DATA DISCOVERY FAQ SITE MAP
JPL Small-Body Database Browser
Search: [ help ]  
134674 (1999 VO225)
Classification: Main-belt Asteroid          SPK-ID: 2134674
Ephemeris | Orbit Diagram | Orbital Elements | Mission Design | Physical Parameters | Discovery Circumstances ]

[ show orbit diagram ]
Orbital Elements at Epoch 2459000.5 (2020-May-31.0) TDB
Reference: JPL 16 (heliocentric ecliptic J2000)
 Element Value Uncertainty (1-sigma)   Units 
e .1414025056113024 3.3914e-08  
a 2.374865602204865 1.2589e-08 au
q 2.039053655563003 8.1985e-08 au
i 5.647415091215426 4.3917e-06 deg
node 142.5583250528857 3.9994e-05 deg
peri 273.3825948302271 4.3229e-05 deg
M 214.4952616839862 1.7629e-05 deg
tp 2459540.795832994291
(2021-Nov-22.29583299)
6.7251e-05 TDB
period 1336.770899209529
3.66
1.0629e-05
2.91e-08
d
yr
n .2693056829804408 2.1414e-09 deg/d
Q 2.710677548846727 1.4369e-08 au
  Orbit Determination Parameters
   # obs. used (total)      573  
   data-arc span      7175 days (19.64 yr)  
   first obs. used      1999-10-09  
   last obs. used      2019-06-01  
   planetary ephem.      DE431  
   SB-pert. ephem.      SB431-N16  
   condition code      0  
   norm. resid. RMS      .56665  
   source      ORB  
   producer      Otto Matic  
   solution date      2020-Nov-12 16:07:11  

Additional Information
 Earth MOID = 1.06004 au 
 Jupiter MOID = 2.62292 au 
 T_jup = 3.522 
[ show covariance matrix ]

Ephemeris | Orbit Diagram | Orbital Elements | Mission Design | Physical Parameters | Discovery Circumstances ]

Physical Parameter Table
Parameter Symbol Value Units Sigma Reference Notes
absolute magnitude H 16.3   n/a MPO432810  

134674 (1999 VO225)          Discovered 1999-Nov-05 by LINEAR at Socorro
Reference: 20060907/Numbers.arcLast Updated: 2006-09-10
Ephemeris | Orbit Diagram | Orbital Elements | Mission Design | Physical Parameters | Discovery Circumstances ]
ABOUT SSD CREDITS/AWARDS PRIVACY/COPYRIGHT GLOSSARY LINKS
FirstGov 2020-Nov-25 02:01 UT
(server date/time)  
NASA Home Page
Site Manager:   Ryan S. Park
Webmaster  Alan B. Chamberlin